Location: Newark
(44.3248°N, 23.7839°E)
Time: 17:14:18
(UTC+00:00)

STARS - Pass Details

Date: 26 April 2024
Orbit: 604 x 620 km, 98.1° (Epoch: 28 May)

Event Time Altitude Azimuth Distance (km) Brightness Sun altitude
Rises 23:49:11 0° 356° (N) 2,896 ? -28.5°
Reaches altitude 10° 23:52:05 10° 336° (NNW) 1,981 ? -28.3°
Enters shadow 23:53:55 15° 311° (NW) 1,646 ? -28.1°
